Weather History for Austin, MN

Change the Weather History Date:

Tuesday, April 9, 2013

  Actual Average Record
Temperature  
Mean Temperature 39 °F -  
Max Temperature 41 °F 50 °F 75 °F (2005)
Min Temperature 37 °F 32 °F 14 °F (1997)
Degree Days  
Heating Degree Days 26    
Moisture  
Dew Point 36 °F    
Average Humidity 89    
Maximum Humidity 93    
Minimum Humidity 87    
Precipitation  
Precipitation 1.05 in - - ()
Sea Level Pressure  
Sea Level Pressure 29.92 in    
Wind  
Wind Speed 15 mph (NE)    
Max Wind Speed 26 mph    
Max Gust Speed 36 mph    
Visibility 5 miles    
Events Rain , Snow , Thunderstorm    
Averages and records for this station are not official NWS values.
T = Trace of Precipitation, MM = Missing Value Source: NWS Daily Summary

Daily Weather History Graph

Daily Weather History Graph

Search for Another Location

Airport:

Trip Planner

Search our weather history database for the weather conditions in past years. The results will help you decide how hot, cold, wet, or windy it might be!

Date:

Astronomy

Apr. 09, 2013 Rise Set
Actual Time 6:38 AM CDT 7:48 PM CDT
Civil Twilight 6:09 AM CDT 8:17 PM CDT
Nautical Twilight 5:34 AM CDT 8:53 PM CDT
Astronomical Twilight 4:56 AM CDT 9:30 PM CDT
Moon 6:02 AM CDT (4/9) 7:24 PM CDT (4/9)
Length of Visible Light 14h 08m
Length of Day
13h 09m
Waning Crescent, 1% of the Moon is Illuminated
Apr 9
Waning Crescent
Apr 10
New
Apr 18
First Quarter
Apr 25
Full
May 2
Last Quarter

Hourly Weather History & Observations

Time (CDT) Temp. Windchill Dew Point Humidity Pressure Visibility Wind Dir Wind Speed Gust Speed Precip Events Conditions
12:16 AM 41.0 °F 34.3 °F 37.4 °F 87% 29.96 in 3.0 mi NE 11.5 mph - N/A   Overcast
12:36 AM 41.0 °F 34.3 °F 37.4 °F 87% 29.95 in 4.0 mi NE 11.5 mph - N/A   Overcast
12:55 AM 41.0 °F 33.9 °F 37.4 °F 87% 29.94 in 4.0 mi NE 12.7 mph 19.6 mph N/A   Overcast
1:16 AM 41.0 °F 33.9 °F 37.4 °F 87% 29.94 in 4.0 mi NE 12.7 mph 18.4 mph N/A   Overcast
1:36 AM 41.0 °F 33.1 °F 37.4 °F 87% 29.92 in 4.0 mi NE 15.0 mph 19.6 mph N/A   Overcast
1:55 AM 39.2 °F 30.8 °F 37.4 °F 93% 29.90 in 4.0 mi NE 15.0 mph 19.6 mph N/A   Overcast
2:16 AM 39.2 °F 30.5 °F 37.4 °F 93% 29.88 in 4.0 mi NE 16.1 mph 20.7 mph N/A   Overcast
2:36 AM 39.2 °F 30.5 °F 37.4 °F 93% 29.90 in 4.0 mi ENE 16.1 mph 24.2 mph N/A   Overcast
2:55 AM 39.2 °F 30.8 °F 37.4 °F 93% 29.92 in 4.0 mi ENE 15.0 mph 20.7 mph N/A   Overcast
3:16 AM 39.2 °F 31.2 °F 37.4 °F 93% 29.91 in 4.0 mi ENE 13.8 mph 21.9 mph N/A   Overcast
3:36 AM 39.2 °F 31.6 °F 37.4 °F 93% 29.92 in 4.0 mi ENE 12.7 mph 18.4 mph N/A   Overcast
3:55 AM 39.2 °F 30.8 °F 35.6 °F 87% 29.91 in 4.0 mi ENE 15.0 mph 20.7 mph N/A Thunderstorm Overcast
4:16 AM 39.2 °F 31.2 °F 37.4 °F 93% 29.93 in 4.0 mi NE 13.8 mph 18.4 mph N/A   Overcast
4:36 AM 39.2 °F 31.2 °F 37.4 °F 93% 29.91 in 4.0 mi NE 13.8 mph - N/A Rain , Thunderstorm Rain
4:55 AM 39.2 °F 30.5 °F 35.6 °F 87% 29.88 in 4.0 mi NE 16.1 mph 23.0 mph N/A Rain , Thunderstorm Light Thunderstorms and Rain
5:15 AM 39.2 °F 29.8 °F 35.6 °F 87% 29.84 in 3.0 mi NE 18.4 mph 27.6 mph 0.02 in Rain Rain
5:36 AM 39.2 °F 32.5 °F 35.6 °F 87% 29.90 in 4.0 mi NNE 10.4 mph 17.3 mph 0.05 in Rain Rain
5:55 AM 39.2 °F 30.8 °F 35.6 °F 87% 29.89 in 4.0 mi NE 15.0 mph 21.9 mph 0.07 in Rain Rain
6:15 AM 39.2 °F 31.6 °F 35.6 °F 87% 29.89 in 4.0 mi NE 12.7 mph 24.2 mph 0.01 in Rain Light Rain
6:36 AM 39.2 °F 32.5 °F 37.4 °F 93% 29.92 in 5.0 mi NE 10.4 mph 16.1 mph 0.01 in Rain Light Rain
7:15 AM 39.2 °F 30.8 °F 37.4 °F 93% 29.90 in 5.0 mi NE 15.0 mph 19.6 mph N/A Rain Light Rain
7:36 AM 39.2 °F 30.5 °F 37.4 °F 93% 29.89 in 5.0 mi NE 16.1 mph 23.0 mph N/A Rain Light Rain
7:56 AM 39.2 °F 30.2 °F 37.4 °F 93% 29.88 in 5.0 mi NE 17.3 mph 23.0 mph N/A Rain Light Rain
8:15 AM 39.2 °F 30.2 °F 35.6 °F 87% 29.87 in 5.0 mi NE 17.3 mph 26.5 mph 0.02 in Rain Rain
8:36 AM 39.2 °F 30.5 °F 35.6 °F 87% 29.86 in 4.0 mi NE 16.1 mph 24.2 mph 0.06 in Rain , Thunderstorm Rain
8:56 AM 39.2 °F 32.0 °F 35.6 °F 87% 29.89 in 2.5 mi NE 11.5 mph 17.3 mph 0.01 in Rain , Thunderstorm Heavy Thunderstorms and Rain
9:15 AM 39.2 °F 30.8 °F 35.6 °F 87% 29.89 in 2.0 mi NE 15.0 mph 21.9 mph 0.13 in Rain , Thunderstorm Heavy Thunderstorms and Rain
9:36 AM 39.2 °F 29.8 °F 35.6 °F 87% 29.90 in 1.0 mi NE 18.4 mph 26.5 mph 0.30 in Thunderstorm Thunderstorm
9:55 AM 37.4 °F 29.3 °F 35.6 °F 93% 29.92 in 1.5 mi NE 12.7 mph - 0.41 in Rain , Thunderstorm Heavy Thunderstorms and Rain
10:15 AM 37.4 °F 28.5 °F 35.6 °F 93% 29.92 in 1.5 mi NE 15.0 mph 19.6 mph 0.12 in Rain , Thunderstorm Heavy Thunderstorms and Rain
10:36 AM 37.4 °F 26.1 °F 35.6 °F 93% 29.83 in 10.0 mi ENE 24.2 mph 35.7 mph 0.16 in Rain , Thunderstorm Light Thunderstorms and Rain
10:55 AM 39.2 °F 29.6 °F 35.6 °F 87% 29.86 in 10.0 mi NE 19.6 mph 29.9 mph 0.16 in   Light Drizzle
11:15 AM 39.2 °F 30.5 °F 35.6 °F 87% 29.89 in 10.0 mi NE 16.1 mph 27.6 mph N/A Thunderstorm Overcast
11:35 AM 39.2 °F 30.5 °F 35.6 °F 87% 29.93 in 7.0 mi NNE 16.1 mph 24.2 mph 0.01 in Rain Light Rain
11:56 AM 39.2 °F 30.8 °F 35.6 °F 87% 29.93 in 10.0 mi North 15.0 mph 24.2 mph N/A Rain Light Rain
12:15 PM 39.2 °F 30.5 °F 35.6 °F 87% 29.92 in 10.0 mi NNE 16.1 mph 25.3 mph N/A Rain Light Rain
12:36 PM 39.2 °F 30.8 °F 35.6 °F 87% 29.92 in 10.0 mi NNE 15.0 mph 24.2 mph N/A   Light Drizzle
12:55 PM 39.2 °F 29.6 °F 35.6 °F 87% 29.91 in 10.0 mi NNE 19.6 mph 27.6 mph N/A   Overcast
1:15 PM 39.2 °F 29.6 °F 35.6 °F 87% 29.90 in 10.0 mi NNE 19.6 mph 29.9 mph N/A   Overcast
1:36 PM 39.2 °F 31.2 °F 35.6 °F 87% 29.91 in 10.0 mi NE 13.8 mph 27.6 mph N/A   Overcast
1:55 PM 39.2 °F 30.5 °F 35.6 °F 87% 29.91 in 10.0 mi NE 16.1 mph 28.8 mph N/A   Drizzle
2:15 PM 39.2 °F 29.8 °F 35.6 °F 87% 29.91 in 7.0 mi NE 18.4 mph 28.8 mph N/A Rain Light Rain
2:36 PM 39.2 °F 29.3 °F 35.6 °F 87% 29.92 in 7.0 mi ENE 20.7 mph 28.8 mph N/A   Light Drizzle
2:55 PM 39.2 °F 30.5 °F 37.4 °F 93% 29.92 in 7.0 mi NE 16.1 mph 29.9 mph N/A   Light Drizzle
3:15 PM 41.0 °F 31.1 °F 37.4 °F 87% 29.92 in 7.0 mi NE 23.0 mph 26.5 mph N/A   Overcast
3:36 PM 41.0 °F 30.9 °F 37.4 °F 87% 29.91 in 5.0 mi NE 24.2 mph 31.1 mph N/A   Overcast
3:55 PM 41.0 °F 32.2 °F 37.4 °F 87% 29.92 in 4.0 mi NE 18.4 mph 27.6 mph N/A   Overcast
4:15 PM 41.0 °F 33.1 °F 37.4 °F 87% 29.94 in 5.0 mi NE 15.0 mph 25.3 mph N/A   Light Drizzle
4:36 PM 41.0 °F 33.1 °F 37.4 °F 87% 29.96 in 5.0 mi NE 15.0 mph 21.9 mph N/A Thunderstorm Overcast
4:55 PM 41.0 °F 33.9 °F 37.4 °F 87% 29.96 in 4.0 mi NE 12.7 mph 21.9 mph N/A   Overcast
5:15 PM 39.2 °F 30.2 °F 37.4 °F 93% 29.95 in 3.0 mi ENE 17.3 mph 24.2 mph N/A   Overcast
5:36 PM 39.2 °F 29.8 °F 37.4 °F 93% 29.95 in 2.5 mi NE 18.4 mph 23.0 mph N/A   Light Drizzle
5:56 PM 39.2 °F 30.8 °F 37.4 °F 93% 29.98 in 3.0 mi NE 15.0 mph 20.7 mph N/A Thunderstorm Overcast
6:15 PM 39.2 °F 30.5 °F 37.4 °F 93% 29.97 in 3.0 mi NE 16.1 mph 24.2 mph N/A   Overcast
6:36 PM 39.2 °F 31.6 °F 37.4 °F 93% 29.99 in 5.0 mi NE 12.7 mph 20.7 mph N/A   Overcast
6:55 PM 39.2 °F 29.6 °F 35.6 °F 87% 29.95 in 5.0 mi NE 19.6 mph 25.3 mph 0.01 in Rain Rain
7:15 PM 39.2 °F 28.5 °F 35.6 °F 87% 29.86 in 7.0 mi NE 24.2 mph 34.5 mph 0.03 in Rain , Thunderstorm Thunderstorms and Rain
7:36 PM 37.4 °F 25.6 °F 35.6 °F 93% 29.84 in 10.0 mi ENE 26.5 mph 35.7 mph 0.03 in Rain , Thunderstorm Light Thunderstorms and Rain
7:55 PM 39.2 °F 30.8 °F 35.6 °F 87% 29.93 in 10.0 mi NE 15.0 mph 27.6 mph 0.04 in Rain Light Rain
8:15 PM 39.2 °F 31.2 °F 35.6 °F 87% 29.94 in 10.0 mi NE 13.8 mph 29.9 mph N/A Rain , Thunderstorm Light Thunderstorms and Rain
8:35 PM 37.4 °F 28.2 °F 35.6 °F 93% 29.93 in 2.5 mi NE 16.1 mph 29.9 mph 0.04 in Rain , Thunderstorm Thunderstorms and Rain
8:56 PM 37.4 °F 27.8 °F 35.6 °F 93% 29.93 in 3.0 mi NE 17.3 mph 26.5 mph N/A Rain , Thunderstorm Thunderstorms and Rain
9:15 PM 37.4 °F 28.9 °F 35.6 °F 93% 29.98 in 10.0 mi NE 13.8 mph 24.2 mph 0.03 in Rain , Thunderstorm Light Thunderstorms and Rain
9:56 PM 37.4 °F 27.8 °F 35.6 °F 93% 29.99 in 3.0 mi ENE 17.3 mph 26.5 mph N/A Thunderstorm Thunderstorm
10:15 PM 37.4 °F 26.9 °F 35.6 °F 93% 29.94 in 3.0 mi ENE 20.7 mph 26.5 mph 0.06 in Rain , Thunderstorm Light Thunderstorms and Rain
10:35 PM 37.4 °F 27.8 °F 33.8 °F 87% 29.97 in 5.0 mi NE 17.3 mph 26.5 mph 0.13 in Rain , Thunderstorm Thunderstorms and Rain
10:56 PM 37.4 °F 31.4 °F 35.6 °F 93% 30.04 in 1.8 mi NE 8.1 mph - 0.01 in Snow , Thunderstorm Heavy Thunderstorms and Snow
11:15 PM 37.4 °F 28.2 °F 33.8 °F 87% 29.95 in 3.0 mi NE 16.1 mph 26.5 mph 0.06 in Snow , Thunderstorm Snow
11:35 PM 37.4 °F 29.3 °F 33.8 °F 87% 29.99 in 7.0 mi NE 12.7 mph 19.6 mph 0.08 in Snow , Thunderstorm Light Thunderstorms and Snow
11:56 PM 37.4 °F 30.3 °F 33.8 °F 87% 30.00 in 7.0 mi NE 10.4 mph 20.7 mph N/A Rain , Thunderstorm Rain